Location: Unspecified
(35.7250°N, 0.0000°E)
Time: 20:20:07
(UTC+00:00)

Vanguard 1 Rocket - Pass Details

Date: 20 June 2019
Orbit: 651 x 4225 km, 34.3° (Epoch: 21 July)

Event Time Altitude Azimuth Distance (km) Brightness Sun altitude
Rises 12:27:18 0° 180° (S) 8,458 12.5 76.5°
Reaches altitude 10° 12:42:42 10° 149° (SSE) 7,026 12.1 74.8°
Maximum altitude 12:46:31 11° 140° (SE) 6,758 12.0 74.3°
Drops below altitude 10° 12:50:06 10° 130° (SE) 6,571 11.9 73.8°
Sets 13:01:19 0° 98° (E) 6,586 11.7 72.2°
